Location: Antist
(43.1184°N, 0.1270°E)
Time: 19:02:37
(UTC+00:00)

COSMOS 2428 - Pass Details

Date: 19 January 2020
Orbit: 844 x 858 km, 70.9° (Epoch: 28 February)

Event Time Altitude Azimuth Distance (km) Brightness Sun altitude
Rises 17:20:51 0° 338° (NNW) 3,439 5.9 -5.2°
Reaches altitude 10° 17:23:23 10° 343° (NNW) 2,500 5.1 -5.7°
Maximum altitude 17:29:00 54° 61° (ENE) 1,035 2.9 -6.6°
Drops below altitude 10° 17:34:36 10° 138° (SE) 2,484 4.9 -7.6°
Sets 17:37:06 0° 143° (SE) 3,415 5.7 -8.0°
